Tracking 25703 objects as of 2-Jul-2022
HD Live streaming from Space Station
objects crossing your sky now

COSMOS 2299

Track COSMOS 2299 now!
10-day predictions
COSMOS 2299 is classified as:


NORAD ID: 23441
Int'l Code: 1994-086A
Perigee: 1,409.9 km
Apogee: 1,419.4 km
Inclination: 82.6 °
Period: 113.9 minutes
Semi major axis: 7785 km
RCS: 1.0821 m2 (large)
Launch date: December 26, 1994
Source: Commonwealth of Independent States (former USSR) (CIS)
Launch site: PLESETSK MISSILE AND SPACE COMPLEX (PKMTR)
aabbcc
Your satellite tracking list
Your tracking list is empty




NASA's NSSDC Master Catalog

Two Line Element Set (TLE):
1 23441U 94086A   22183.34091441  .00000018  00000-0  42432-4 0  9991
2 23441  82.5689 143.0693 0006104 242.1558 117.8916 12.63737145269074
Source of the keplerian elements: AFSPC